BAW272 KSAN-EGLL

Flight info

Callsign BAW272
Flight time N/A
Altitude 37000
Route ZZOOO4 MTBAL DCT EED DCT KD45Q DCT KD60U DCT KD78A DCT KP06G DCT DLH Q924 AGLIN DCT 5230N08000W/N0492F390 56N070W DCT LAKES/M084F390 DCT TOXIT DCT 60N050W 6030N04000W 60N030W 5830N02000W DCT SUNOT/N0476F390 DCT KESIX DCT MIMKU DCT KELLY L10 WAL UY53 NUGRA
Aircraft B772/H-SDE2E3FGHIJ5LORVWXY/LB1D1

Departure

Time 2026-05-04 00:28
Airport San Diego International Airport (KSAN)

Arrival

Time N/A
Airport London Heathrow Airport (EGLL)
Time Latitude Longitude Altitude Speed Heading
2026-05-03 23:09 32.73255 -117.20637 25 ft 0 kts 191°
2026-05-04 00:10 32.73261 -117.20636 25 ft 2 kts 189°
2026-05-04 00:10 32.73277 -117.20635 25 ft 2 kts 176°
2026-05-04 00:10 32.73291 -117.20637 25 ft 2 kts 167°
2026-05-04 00:10 32.73310 -117.20644 25 ft 2 kts 155°
2026-05-04 00:11 32.73319 -117.20649 25 ft 2 kts 149°
2026-05-04 00:11 32.73330 -117.20658 25 ft 2 kts 140°
2026-05-04 00:11 32.73345 -117.20676 25 ft 1 kts 131°
2026-05-04 00:11 32.73346 -117.20677 25 ft 0 kts 131°
2026-05-04 00:16 32.73344 -117.20674 25 ft 1 kts 130°
2026-05-04 00:16 32.73332 -117.20645 25 ft 6 kts 106°
2026-05-04 00:17 32.73331 -117.20589 25 ft 7 kts 70°
2026-05-04 00:17 32.73367 -117.20556 25 ft 8 kts
2026-05-04 00:17 32.73424 -117.20555 25 ft 8 kts
2026-05-04 00:17 32.73490 -117.20529 25 ft 9 kts 40°
2026-05-04 00:18 32.73524 -117.20487 25 ft 9 kts 47°
2026-05-04 00:18 32.73564 -117.20429 25 ft 10 kts 55°
2026-05-04 00:18 32.73586 -117.20361 25 ft 7 kts 92°
2026-05-04 00:18 32.73576 -117.20306 25 ft 8 kts 105°
2026-05-04 00:19 32.73563 -117.20249 25 ft 10 kts 105°
2026-05-04 00:19 32.73549 -117.20191 25 ft 12 kts 106°
2026-05-04 00:19 32.73529 -117.20112 25 ft 17 kts 106°
2026-05-04 00:19 32.73497 -117.19978 25 ft 22 kts 106°
2026-05-04 00:20 32.73475 -117.19887 25 ft 23 kts 105°
2026-05-04 00:20 32.73422 -117.19661 25 ft 22 kts 107°
2026-05-04 00:20 32.73388 -117.19524 28 ft 20 kts 107°
2026-05-04 00:20 32.73358 -117.19407 28 ft 19 kts 105°
2026-05-04 00:21 32.73332 -117.19296 28 ft 19 kts 104°
2026-05-04 00:21 32.73249 -117.18949 26 ft 20 kts 106°
2026-05-04 00:22 32.73222 -117.18842 26 ft 21 kts 108°
2026-05-04 00:22 32.73171 -117.18638 25 ft 16 kts 108°
2026-05-04 00:22 32.73149 -117.18541 25 ft 16 kts 105°
2026-05-04 00:23 32.73127 -117.18450 25 ft 16 kts 106°
2026-05-04 00:23 32.73105 -117.18357 25 ft 16 kts 107°
2026-05-04 00:23 32.73083 -117.18272 25 ft 16 kts 107°
2026-05-04 00:23 32.73061 -117.18185 25 ft 16 kts 106°
2026-05-04 00:24 32.73031 -117.18059 25 ft 18 kts 106°
2026-05-04 00:24 32.73004 -117.17946 26 ft 18 kts 105°
2026-05-04 00:24 32.72983 -117.17859 27 ft 17 kts 105°
2026-05-04 00:24 32.72967 -117.17793 28 ft 5 kts 106°
2026-05-04 00:25 32.72955 -117.17742 29 ft 5 kts 106°
2026-05-04 00:25 32.72949 -117.17716 29 ft 5 kts 103°
2026-05-04 00:25 32.72951 -117.17672 30 ft 4 kts 71°
2026-05-04 00:25 32.72956 -117.17655 30 ft 5 kts 71°
2026-05-04 00:26 32.72966 -117.17622 31 ft 6 kts 70°
2026-05-04 00:26 32.72986 -117.17578 31 ft 8 kts 50°
2026-05-04 00:26 32.73014 -117.17570 31 ft 3 kts 319°
2026-05-04 00:26 32.73022 -117.17590 31 ft 0 kts 286°
2026-05-04 00:27 32.73023 -117.17596 31 ft 7 kts 285°
2026-05-04 00:27 32.73053 -117.17720 31 ft 45 kts 286°
2026-05-04 00:27 32.73188 -117.18277 25 ft 109 kts 286°
2026-05-04 00:28 32.74010 -117.21517 1098 ft 174 kts 285°
2026-05-04 00:29 32.74285 -117.22652 1525 ft 180 kts 285°